EHI
20 26 25 11 2 4 15 28 38 45 47 41 31 24 16 8 4 3 3 3 2 1 0 0 0 0 0 0 0 0 0 0 0 0 0 0 0 0 0 0 0 0 0
25 28 23 10 3 6 16 28 38 44 45 41 35 27 17 9 4 3 3 2 1 0 0 0 0 0 0 0 0 0 0 0 0 0 0 0 0 0 0 0 0 0 0
29 28 20 9 6 10 17 26 35 40 41 40 36 29 19 8 4 3 2 1 0 0 0 0 0 0 0 0 0 0 0 0 0 0 0 0 0 0 0 0 0 1 1
24 24 20 14 10 12 17 23 30 34 35 35 31 24 14 6 2 2 1 0 0 0 0 0 0 0 0 0 0 0 0 0 0 0 0 0 0 0 0 0 0 0 0
15 19 24 20 13 11 16 21 25 27 27 25 21 14 6 2 1 1 0 0 0 0 0 0 0 0 0 0 0 0 0 0 0 0 0 0 0 0 0 0 0 0 0
11 16 25 23 15 12 14 17 19 19 18 16 11 6 2 0 0 0 0 0 0 0 0 0 0 0 0 0 0 0 0 0 0 0 0 0 0 0 0 0 0 0 0
12 17 25 25 18 14 13 13 14 14 12 10 7 5 2 1 0 0 0 0 0 0 0 0 0 0 0 0 0 0 0 0 0 0 0 0 0 0 0 0 0 0 0
12 17 24 23 17 14 13 12 11 10 9 7 5 4 2 1 0 0 0 0 0 0 0 0 0 0 0 0 0 0 0 0 0 0 0 0 0 0 0 0 0 0 0
11 14 17 16 13 12 11 10 8 7 6 4 2 1 1 0 0 0 0 0 0 0 0 0 0 0 0 0 0 0 0 0 0 0 0 0 0 0 0 0 0 0 0
8 10 10 10 11 10 9 8 7 5 3 2 0 0 0 0 0 0 0 0 0 0 0 0 0 0 1 1 0 0 0 0 0 0 0 1 1 1 0 0 0 0 0
12 11 9 9 9 7 6 8 7 3 1 1 1 1 1 0 0 1 1 2 1 0 0 0 0 1 1 1 1 1 1 0 0 0 2 4 3 1 0 0 0 0 0
20 14 9 9 9 6 6 8 6 3 3 3 3 4 4 4 3 4 5 5 2 0 0 1 2 1 1 2 3 2 2 1 1 1 4 9 6 1 0 0 0 0 0
25 18 11 12 12 10 10 11 9 8 9 8 8 10 12 12 10 11 13 12 8 5 5 5 6 5 4 4 5 3 2 2 2 2 8 13 8 1 0 0 0 0 0
27 21 16 15 16 17 17 16 14 14 14 14 15 16 18 19 17 17 21 20 15 13 12 12 13 11 8 6 4 2 1 2 3 4 11 15 8 1 0 0 0 0 0
27 24 20 19 20 23 24 20 17 17 17 18 19 20 21 20 18 18 22 22 18 16 16 17 17 16 12 8 5 3 3 5 5 5 8 12 9 2 0 0 0 0 0
27 27 25 22 23 25 23 19 17 17 17 15 15 15 16 15 14 15 17 19 17 15 15 15 15 16 16 12 9 8 9 10 11 8 8 10 8 4 2 1 1 0 0
30 30 26 20 19 19 17 15 15 15 14 10 7 6 6 6 8 11 14 16 16 14 14 14 12 12 14 14 12 12 12 13 13 11 11 12 10 6 4 4 3 2 1
30 28 22 15 12 13 13 12 12 12 10 7 3 1 0 1 3 6 10 11 11 11 12 13 11 8 9 10 10 10 10 10 8 8 10 13 12 9 6 5 4 4 2
24 21 17 13 11 11 11 9 8 7 6 4 2 0 0 0 0 2 4 5 4 6 8 9 8 7 6 6 6 6 6 6 4 3 4 8 9 9 7 5 6 5 3
17 16 16 16 13 10 8 6 4 3 3 3 2 1 1 0 0 0 1 1 1 2 3 5 5 5 6 6 4 3 3 4 4 3 2 3 4 4 3 5 8 7 6
11 12 15 16 13 9 5 3 3 2 3 3 3 3 2 1 0 0 0 0 0 1 1 2 2 3 5 5 4 2 2 2 3 3 2 2 2 1 1 4 8 9 9
6 7 9 10 8 5 4 3 3 2 2 2 2 2 2 1 0 0 0 0 0 0 0 0 1 2 2 2 2 1 1 1 1 2 1 1 2 1 1 3 5 7 9
4 4 4 4 3 3 3 2 2 1 1 1 1 1 1 0 0 0 0 0 0 0 0 0 1 1 0 0 0 0 0 0 1 0 0 0 1 1 1 2 4 5 6
1 2 3 4 4 3 2 2 1 0 0 0 0 0 0 0 0 0 0 0 0 0 0 0 0 0 0 0 0 0 0 0 0 0 0 0 0 0 0 2 4 4 4
1 1 3 8 10 7 3 2 1 0 0 0 0 0 0 0 0 0 0 0 0 0 0 0 0 0 0 0 0 0 0 0 0 0 0 0 0 0 0 1 4 4 4
1 1 4 12 16 11 5 2 0 0 0 0 0 0 0 0 0 0 0 0 0 0 0 0 0 0 0 0 0 0 0 0 0 0 0 0 0 0 0 1 3 4 4
Wind_Speed
13 17 19 15 14 13 13 14 14 14 14 14 14 14 13 12 12 11 10 9 8 7 7 7 6 7 7 8 8 9 9 9 9 10 10 11 11 11 11 11 11 13 15
16 18 19 15 14 13 13 13 13 13 14 14 13 13 13 12 11 10 9 9 8 7 7 6 7 7 8 8 9 9 9 9 9 9 11 11 10 10 9 6 5 12 14
17 18 18 15 14 13 13 12 12 13 13 13 12 12 12 11 11 10 9 8 7 7 6 6 7 7 8 8 9 9 9 9 9 8 8 9 11 9 8 9 13 14 13
17 17 17 17 14 14 13 12 12 12 12 12 12 11 11 10 10 9 8 8 7 6 6 6 6 7 7 7 8 8 8 8 8 7 5 7 10 11 9 11 12 13 13
16 15 17 17 15 14 13 12 12 12 11 11 11 10 10 9 9 8 8 7 7 6 6 5 6 7 7 7 7 7 7 7 6 8 5 6 8 10 10 11 12 12 13
16 15 17 16 15 14 13 12 12 11 11 10 10 9 9 8 8 7 7 6 6 5 5 5 6 6 7 7 7 6 6 7 9 5 5 6 8 10 9 10 11 12 12
15 14 18 16 15 14 13 12 12 11 10 10 9 8 8 7 7 7 6 6 5 5 5 5 6 6 6 6 6 6 6 5 7 5 5 5 9 10 9 9 10 11 11
13 14 16 15 14 13 13 12 12 11 10 10 9 8 7 7 6 6 6 6 5 5 5 5 6 6 6 6 6 5 5 7 6 5 5 6 11 8 9 9 10 11 11
12 12 13 14 13 13 11 11 11 10 10 10 9 9 8 7 7 6 6 6 6 6 6 6 6 7 7 7 6 6 5 6 8 3 5 5 11 9 9 9 10 10 11
9 9 10 10 10 11 11 11 10 9 9 9 9 8 8 8 8 8 8 8 7 7 7 7 7 7 8 8 8 7 7 7 9 6 4 6 12 10 10 10 11 11 11
8 7 7 8 8 8 8 10 11 10 9 9 9 9 9 8 8 8 8 6 7 8 8 9 8 9 9 10 10 9 9 8 9 6 4 9 10 10 11 11 12 12 12
10 8 6 6 6 6 5 6 6 6 7 7 5 6 6 5 4 5 3 5 8 9 10 10 10 10 10 9 11 12 8 10 8 6 5 11 9 11 12 12 13 13 13
9 7 6 5 4 4 3 3 2 3 3 5 5 5 4 4 4 4 3 4 6 9 8 8 9 8 8 6 5 7 9 8 6 6 6 13 10 11 13 13 14 15 15
8 7 5 5 4 3 2 2 2 2 2 2 3 4 4 3 3 3 3 4 4 4 5 5 5 7 8 8 8 9 9 7 6 6 5 13 12 12 13 14 14 16 16
7 6 5 4 4 3 2 2 1 1 2 2 2 2 3 3 3 3 3 3 5 5 5 6 6 7 7 9 9 10 11 11 10 9 5 10 12 13 15 15 16 17 18
6 6 5 4 3 3 2 1 1 1 1 1 1 2 2 3 3 3 4 4 5 5 5 5 7 6 6 7 9 10 11 11 11 10 10 9 14 15 15 16 17 17 18
6 6 5 4 4 3 2 1 1 0 0 0 1 1 1 1 2 3 3 4 4 4 5 5 6 6 6 8 9 10 10 10 10 11 11 8 9 15 17 17 17 17 18
6 6 5 5 5 4 3 1 1 1 1 0 1 1 1 1 2 3 3 3 2 3 4 4 5 5 6 7 7 8 8 8 11 11 11 10 9 9 14 19 18 17 19
6 5 5 5 5 4 4 3 2 2 1 0 0 0 1 1 2 3 2 2 3 3 3 5 4 5 6 6 7 7 8 8 9 11 12 12 11 11 10 12 18 18 20
6 5 5 5 4 4 3 3 2 2 1 1 1 1 1 1 2 3 3 2 4 4 4 4 4 5 6 6 8 7 7 8 8 9 11 11 11 13 13 12 12 15 20
6 6 5 5 4 3 2 1 1 1 1 1 0 1 1 2 2 3 4 2 4 4 5 6 6 6 6 5 7 7 8 9 9 8 8 9 11 12 11 12 11 10 11
6 5 5 5 4 3 2 0 0 1 2 1 1 0 2 2 3 4 3 5 4 4 6 6 6 6 5 4 5 6 6 6 7 7 7 8 9 9 10 12 12 12 11
6 5 4 4 4 3 2 2 1 2 3 2 2 2 2 3 4 4 5 6 5 7 5 5 6 7 6 5 5 5 6 5 4 4 5 6 6 6 7 8 11 12 13
5 5 5 4 4 3 3 2 3 3 4 3 4 3 3 4 5 5 5 6 6 7 6 7 6 6 7 7 5 5 6 6 6 5 5 5 6 6 7 7 8 9 11
5 5 4 4 3 2 2 2 4 4 4 4 4 4 5 4 5 5 5 6 6 7 7 7 7 8 7 8 7 5 6 5 7 7 7 5 5 5 5 6 6 7 9
4 4 3 3 3 2 2 2 3 4 5 6 6 6 6 5 4 5 6 6 7 7 7 8 8 9 8 8 8 7 6 6 6 6 7 7 6 6 5 5 6 7 8
Wind_Direction
154 143 145 154 153 150 148 148 148 151 153 154 154 153 152 150 148 146 142 139 134 127 117 109 106 106 112 113 113 111 113 114 113 113 111 111 113 116 123 134 144 119 118
147 142 147 154 154 151 147 145 145 147 151 153 153 153 154 153 151 149 146 143 139 133 121 110 106 104 106 109 112 113 116 118 118 118 123 120 115 116 123 128 98 112 126
146 142 151 154 154 151 146 143 143 145 148 150 151 152 153 154 153 152 150 149 146 139 127 118 113 110 110 112 114 117 120 121 122 135 171 140 119 118 117 108 105 121 126
146 148 155 151 154 151 147 144 143 144 146 148 150 152 154 155 156 156 156 155 153 146 136 131 126 122 121 122 124 125 127 128 133 180 181 119 125 121 126 123 124 129 130
148 150 144 154 155 153 150 147 146 145 146 149 150 152 155 158 160 162 164 164 160 153 147 145 140 135 132 133 133 134 133 136 158 217 113 115 115 126 134 133 135 135 135
152 152 143 157 156 155 153 151 150 149 149 151 153 156 160 164 168 171 171 171 167 165 160 158 154 148 144 142 144 145 145 155 203 152 130 139 122 136 143 143 141 139 140
155 148 145 158 158 158 157 156 154 154 155 157 159 162 167 171 176 180 181 181 180 179 176 171 168 162 159 157 159 162 165 194 238 132 150 133 115 138 153 152 148 146 145
153 149 144 156 160 161 162 162 161 160 162 164 167 172 178 183 190 194 193 197 196 195 194 187 183 178 175 174 175 181 190 229 220 170 171 142 120 152 164 162 157 154 152
155 150 151 160 164 166 167 168 168 168 170 174 177 182 189 194 200 205 207 209 212 211 208 203 198 194 191 189 191 198 209 242 261 195 189 150 138 167 176 173 169 165 162
154 151 155 162 166 172 173 174 177 178 180 184 187 191 198 204 208 211 218 209 221 225 222 219 216 211 208 205 205 207 214 234 242 213 203 146 149 180 188 185 182 178 174
154 152 159 161 168 181 182 170 183 185 190 198 199 200 209 219 216 207 221 204 227 234 232 230 227 223 219 213 214 215 217 234 227 226 208 131 161 189 198 195 191 189 185
161 164 167 167 172 186 195 173 199 199 187 210 210 206 216 225 238 245 173 215 240 242 238 234 234 231 229 224 206 207 226 229 244 225 191 143 177 200 206 202 198 196 193
161 166 162 159 175 185 194 195 207 216 201 214 218 219 231 242 238 244 233 215 232 238 241 227 224 232 234 238 238 222 237 238 234 237 193 160 189 210 214 209 204 201 199
158 158 154 158 168 188 217 210 216 221 222 235 224 236 232 238 251 255 255 260 251 248 252 255 244 240 246 244 239 242 240 240 243 243 201 168 193 214 220 216 211 207 203
154 158 153 158 167 173 199 254 239 274 282 268 266 255 261 257 258 262 260 262 261 259 250 251 252 248 247 246 244 240 241 241 244 242 224 186 201 215 223 222 217 212 209
155 152 149 155 152 154 174 210 291 301 292 268 270 276 266 258 263 267 259 254 257 260 269 268 262 258 255 254 251 248 245 243 240 242 242 211 207 215 221 224 222 217 214
128 123 133 137 135 141 159 195 187 155 271 285 256 228 262 269 271 259 256 255 265 267 260 256 260 256 251 251 251 250 246 244 244 240 241 239 222 213 217 222 224 221 218
118 120 125 127 127 136 134 139 115 87 66 308 275 180 171 268 271 268 271 273 282 268 265 263 259 261 257 256 253 254 251 243 243 241 238 232 232 231 213 214 219 221 221
123 127 123 119 125 127 134 136 128 131 130 159 142 102 97 270 274 271 278 296 272 271 271 271 271 273 269 265 260 248 249 247 244 241 239 235 230 231 232 209 210 217 222
125 128 128 126 122 135 138 144 149 139 152 171 152 92 326 282 284 290 270 284 284 274 270 272 278 268 274 273 273 270 258 251 247 242 238 235 230 229 229 231 215 213 217
134 136 134 128 128 137 135 163 168 172 202 219 232 62 288 299 300 285 292 280 275 278 282 278 272 264 261 270 270 264 254 245 244 244 238 238 233 230 230 232 231 230 212
147 149 150 148 141 157 127 127 327 326 286 304 315 330 285 287 284 274 287 284 278 281 266 267 262 276 275 263 274 280 272 249 226 232 233 232 236 233 231 230 228 227 234
160 166 158 149 161 178 179 203 197 223 251 249 267 256 280 285 279 293 288 289 292 278 273 275 269 263 272 269 261 276 281 281 295 238 234 239 236 235 236 238 233 229 226
170 166 167 172 177 187 219 257 282 292 301 316 300 308 295 277 287 287 283 284 284 285 284 269 265 269 264 268 255 253 268 293 288 281 245 231 231 237 241 245 244 235 230
174 172 172 169 181 200 235 255 274 288 300 300 302 296 291 284 278 281 282 284 281 278 282 287 286 273 269 268 273 265 258 254 254 267 275 274 255 246 243 244 244 240 234
180 182 181 172 178 193 227 259 285 301 303 307 301 303 290 286 278 278 284 285 279 282 281 273 273 264 264 272 274 270 262 259 258 262 269 272 273 268 259 256 251 242 236